Tracking 28348 objects as of 8-Dec-2023
HD Live streaming from Space Station
objects crossing your sky now

TIANHUI 2-02B

Track TIANHUI 2-02B now!
10-day predictions


NORAD ID: 49072
Int'l Code: 2021-074B
Perigee: 521.5 km
Apogee: 524.1 km
Inclination: 97.5 °
Period: 94.9 minutes
Semi major axis: 6893 km
RCS: Unknown
Launch date: August 18, 2021
Source: People's Republic of China (PRC)
Launch site: Taiyaun Space Center, China (TSC)
Your satellite tracking list
Your tracking list is empty




NASA's NSSDC Master Catalog

Two Line Element Set (TLE):
1 49072U 21074B   23339.46285823  .00002927  00000-0  15255-3 0  9995
2 49072  97.4657 339.8687 0001898  86.2007 273.9443 15.16762189127104
Source of the keplerian elements: AFSPC